Pagina principale
METAR-TAF:

METAR-TAF

Aeroporti :

Alpnach, Svizzera

latitudine: 46-56-19N, longitudine: 8-17-03E, altezza: 440 m

Osservazione

Il bollettino è stato emesso 25 minuti fa, alle 20:50 UTC
Vento 4 kt da sud/sud-ovest
Temperature 16°C
Umidità 77%
Pressione 1016 hPa
Visibilità 10 km o più
Poco nuvoloso ad un'altezza di 13000 ft
Nubi sparse ad un'altezza di 17000 ft

METAR: LSMA 032050Z AUTO 21004KT 9999NDV FEW130 SCT170 16/12 Q1016 RMK

Ora: 23:15 (21:15 UTC)


TAF: mancante

Osservazioni e previsioni meteorologiche di più di 4000 aeroporti (messaggi METAR e TAF).

Le stazioni disponibili sono rappresentate dai dischi gialli e rossi sulla carta.

Puntare il mouse per vedere il nome della stazione.

Clicca sopra per visualizzare le osservazioni e previsioni meteorologiche.

Per cambiare la mappa : fare clic sui pulsanti verdi con una croce nera per ingrandire, il pulsante verde con un trattino per diminuire, o sulla freccia verde per le mappe adiacenti.


METAR-TAF: